Skip Page Navigation
NASA JPL Caltech
NASA Logo - Jet Propulsion Laboratory + View the NASA Portal
+ Center for Near-Earth Object Studies
JPL Home Earth Solar System Stars & Galaxies Technology
JPL Solar System Dynamics
BODIES ORBITS EPHEMERIDES TOOLS PHYSICAL DATA DISCOVERY FAQ SITE MAP
JPL Small-Body Database Browser
Search: [ help ]  
86490 (2000 DA15)
Classification: Main-belt Asteroid          SPK-ID: 2086490
Ephemeris | Orbit Diagram | Orbital Elements | Mission Design | Physical Parameters | Discovery Circumstances | Close-Approach Data ]

[ show orbit diagram ]
Orbital Elements at Epoch 2459000.5 (2020-May-31.0) TDB
Reference: JPL 17 (heliocentric ecliptic J2000)
 Element Value Uncertainty (1-sigma)   Units 
e .1416063317102511 4.7963e-08  
a 2.347619570803252 9.3241e-09 au
q 2.01518177513061 1.1148e-07 au
i 3.825607122662624 5.5057e-06 deg
node 147.9325869578525 5.6596e-05 deg
peri 358.6283467931735 5.8435e-05 deg
M 240.7501681700199 1.6134e-05 deg
tp 2459435.706410046760
(2021-Aug-09.20641005)
6.0367e-05 TDB
period 1313.832524646334
3.60
7.8272e-06
2.143e-08
d
yr
n .2740075262613149 1.6324e-09 deg/d
Q 2.680057366475895 1.0644e-08 au
  Orbit Determination Parameters
   # obs. used (total)      693  
   data-arc span      7477 days (20.47 yr)  
   first obs. used      2000-02-11  
   last obs. used      2020-08-01  
   planetary ephem.      DE431  
   SB-pert. ephem.      SB431-N16  
   condition code      0  
   norm. resid. RMS      .5056  
   source      ORB  
   producer      Otto Matic  
   solution date      2020-Aug-25 08:01:23  

Additional Information
 Earth MOID = 1.02698 au 
 Jupiter MOID = 2.32213 au 
 T_jup = 3.543 
[ show covariance matrix ]

Ephemeris | Orbit Diagram | Orbital Elements | Mission Design | Physical Parameters | Discovery Circumstances | Close-Approach Data ]

Physical Parameter Table
Parameter Symbol Value Units Sigma Reference Notes
absolute magnitude H 15.9   n/a MPO244839  
diameter diameter 2.471 km 0.577 urn:nasa:pds:neowise_diameters_albedos::2.0[mainbelt] (http://adsabs.harvard.edu/abs/2011ApJ...741...68M)  
geometric albedo albedo 0.152   0.044 urn:nasa:pds:neowise_diameters_albedos::2.0[mainbelt] (http://adsabs.harvard.edu/abs/2011ApJ...741...68M)  

86490 (2000 DA15)          Discovered 2000-Feb-26 by CSS at Catalina
Reference: 20040830/Numbers.arcLast Updated: 2004-09-06

[ show close-approach data ]
Ephemeris | Orbit Diagram | Orbital Elements | Mission Design | Physical Parameters | Discovery Circumstances | Close-Approach Data ]
ABOUT SSD CREDITS/AWARDS PRIVACY/COPYRIGHT GLOSSARY LINKS
FirstGov 2020-Sep-24 15:02 UT
(server date/time)  
NASA Home Page
Site Manager:   Ryan S. Park
Webmaster  Alan B. Chamberlin